OK,400,4,1000,400,2014-10-01T01:40:00,0,28072770,206078
OK,400,4,1000,400,2014-10-01T01:45:00,0,28073217,206078
OK,400,4,1000,400,2014-10-01T01:50:00,0,28073665,206078
OK,400,4,1000,400,2014-10-01T01:55:00,0,28073983,206078
OK,400,4,1000,400,2014-10-01T02:00:00,0,28074432,206078
OK,400,4,1000,400,2014-10-01T02:05:00,0,28074872,206078
OK,400,4,1000,400,2014-10-01T02:10:00,0,28075321,206078
OK,400,4,1000,400,2014-10-01T02:15:00,0,28075770,206078
OK,400,4,1000,400,2014-10-01T02:20:00,0,28076153,206078
OK,400,4,1000,400,2014-10-01T02:25:00,0,28076602,206078
OK,400,4,1000,400,2014-10-01T02:30:00,0,28077051,206078
OK,400,4,1000,400,2014-10-01T02:35:00,0,28077500,206078
OK,400,4,1000,400,2014-10-01T02:40:00,0,28077903,206078
OK,400,4,1000,400,2014-10-01T02:45:00,0,28078352,206078
OK,400,4,1000,400,2014-10-01T02:50:00,0,28078797,206078
OK,400,4,1000,400,2014-10-01T02:55:00,0,28079246,206078
OK,400,4,1000,400,2014-10-01T03:00:00,0,28079688,206078
OK,400,4,1000,400,2014-10-01T03:05:00,0,28080137,206078
OK,400,4,1000,400,2014-10-01T03:10:00,0,28080471,206078
OK,400,4,1000,400,2014-10-01T03:15:00,0,28080920,206078
OK,400,4,1000,400,2014-10-01T03:20:00,0,28081369,206078
OK,400,4,1000,400,2014-10-01T03:25:00,0,28081816,206078
OK,400,4,1000,400,2014-10-01T03:30:00,0,28082265,206078
OK,400,4,1000,400,2014-10-01T03:35:00,0,28082698,206078
OK,400,4,1000,400,2014-10-01T03:40:00,0,28083130,206078
OK,400,4,1000,400,2014-10-01T03:45:00,0,28083579,206078
OK,400,4,1000,400,2014-10-01T03:50:00,0,28084028,206078
OK,400,4,1000,400,2014-10-01T03:55:00,0,28084469,206078
OK,400,4,1000,400,2014-10-01T04:00:00,0,28084894,206078
OK,400,4,1000,400,2014-10-01T04:05:00,0,28085343,206078
OK,400,4,1000,400,2014-10-01T04:10:00,0,28085788,206078
OK,400,4,1000,400,2014-10-01T04:15:00,0,28086237,206078
OK,400,4,1000,400,2014-10-01T04:20:00,0,28086679,206078
OK,400,4,1000,400,2014-10-01T04:25:00,0,28087128,206078
OK,400,4,1000,400,2014-10-01T04:30:00,0,28087573,206078
OK,400,4,1000,400,2014-10-01T04:35:00,0,28088022,206078
OK,400,4,1000,400,2014-10-01T04:40:00,0,28088446,206078
OK,400,4,1000,400,2014-10-01T04:45:00,0,28088895,206078
OK,400,4,1000,400,2014-10-01T04:50:00,0,28089325,206078
OK,400,4,1000,400,2014-10-01T04:55:00,0,28089774,206078
OK,400,4,1000,400,2014-10-01T05:00:00,0,28090223,206078
OK,400,4,1000,400,2014-10-01T05:05:00,0,28090567,206078
OK,400,4,1000,400,2014-10-01T05:10:00,0,28091016,206078
OK,400,4,1000,400,2014-10-01T05:15:00,0,28091465,206078
OK,400,4,1000,400,2014-10-01T05:20:00,0,28091882,206078
OK,400,4,1000,400,2014-10-01T05:25:00,0,28092331,206078
OK,400,4,1000,400,2014-10-01T05:30:00,0,28092775,206078
OK,400,4,1000,400,2014-10-01T05:35:00,0,28093216,206078
OK,400,4,1000,400,2014-10-01T05:40:00,0,28093647,206078
OK,400,4,1000,400,2014-10-01T05:45:00,0,28094096,206078
OK,400,4,1000,400,2014-10-01T05:50:00,0,28094507,206078
OK,400,4,1000,400,2014-10-01T05:55:00,0,28094952,206078
OK,400,4,1000,400,2014-10-01T06:00:00,0,28095399,206078
OK,400,4,1000,400,2014-10-01T06:05:00,0,28095848,206078
OK,400,4,1000,400,2014-10-01T06:10:00,0,28096261,206078
OK,400,4,1000,400,2014-10-01T06:15:00,0,28096710,206078
OK,400,4,1000,400,2014-10-01T06:20:00,0,28097144,206078
OK,400,4,1000,400,2014-10-01T06:25:00,0,28097593,206078
OK,400,4,1000,400,2014-10-01T06:30:00,0,28098042,206078
OK,400,4,1000,400,2014-10-01T06:35:00,0,28098479,206078
OK,400,4,1000,400,2014-10-01T06:40:00,0,28098923,206078
OK,400,4,1000,400,2014-10-01T06:45:00,0,28099371,206078
OK,400,4,1000,400,2014-10-01T06:50:00,0,28099714,206078
OK,400,4,1000,400,2014-10-01T06:55:00,0,28100163,206078
OK,400,4,1000,400,2014-10-01T07:00:00,0,28100470,206078
OK,400,4,1000,400,2014-10-01T07:10:00,0,28101290,206078
OK,400,4,1000,400,2014-10-01T07:15:00,0,28101739,206078
OK,400,4,1000,400,2014-10-01T07:20:00,0,28102175,206078
OK,400,4,1000,400,2014-10-01T07:25:00,0,28102624,206078
OK,400,4,1000,400,2014-10-01T07:30:00,0,28103052,206078
OK,400,4,1000,400,2014-10-01T07:35:00,0,28103498,206078
OK,400,4,1000,400,2014-10-01T07:40:00,0,28103943,206078
OK,400,4,1000,400,2014-10-01T07:45:00,0,28104388,206078
OK,400,4,1000,400,2014-10-01T07:50:00,0,28104829,206078
OK,400,4,1000,400,2014-10-01T07:55:00,0,28105274,206078
OK,400,4,1000,400,2014-10-01T08:00:00,0,28105714,206078
OK,400,4,1000,400,2014-10-01T08:05:00,0,28106163,206078
OK,172,10,1000,172,2014-10-01T08:10:00,1,28106600,206078
OK,400,4,1000,400,2014-10-01T08:15:00,0,28107006,206078
OK,400,4,1000,400,2014-10-01T08:20:00,0,28107438,206078
OK,400,4,1000,400,2014-10-01T08:25:00,0,28107887,206078
OK,400,4,1000,400,2014-10-01T08:30:00,0,28108326,206078
OK,400,4,1000,400,2014-10-01T08:35:00,0,28108775,206078
OK,400,4,1000,400,2014-10-01T08:40:00,0,28109203,206078
OK,400,4,1000,400,2014-10-01T08:45:00,0,28109652,206078
OK,400,4,1000,400,2014-10-01T08:50:00,0,28109995,206078
OK,400,4,1000,400,2014-10-01T08:55:00,0,28110444,206078
OK,400,4,1000,400,2014-10-01T09:00:00,0,28110867,206078
OK,400,4,1000,400,2014-10-01T09:05:00,0,28111316,206078
OK,400,4,1000,400,2014-10-01T09:10:00,0,28111745,206078
OK,400,4,1000,400,2014-10-01T09:15:00,0,28112194,206078
OK,400,4,1000,400,2014-10-01T09:20:00,0,28112535,206078
OK,400,4,1000,400,2014-10-01T09:25:00,0,28112984,206078
OK,400,4,1000,400,2014-10-01T09:30:00,0,28113408,206078
OK,400,4,1000,400,2014-10-01T09:35:00,0,28113857,206078
OK,400,4,1000,400,2014-10-01T09:40:00,0,28114289,206078
OK,400,4,1000,400,2014-10-01T09:45:00,0,28114738,206078
OK,400,4,1000,400,2014-10-01T09:50:00,0,28115092,206078
OK,400,4,1000,400,2014-10-01T10:00:00,0,28115953,206078
OK,400,4,1000,400,2014-10-01T10:05:00,0,28116402,206078
OK,400,4,1000,400,2014-10-01T10:10:00,0,28116810,206078
OK,400,4,1000,400,2014-10-01T10:15:00,0,28117259,206078
OK,400,4,1000,400,2014-10-01T10:20:00,0,28117684,206078
OK,400,4,1000,400,2014-10-01T10:25:00,0,28118133,206078
OK,400,4,1000,400,2014-10-01T10:30:00,0,28118578,206078
OK,400,4,1000,400,2014-10-01T10:35:00,0,28119025,206078
OK,400,4,1000,400,2014-10-01T10:40:00,0,28119469,206078
OK,400,4,1000,400,2014-10-01T10:45:00,0,28119917,206078
OK,400,4,1000,400,2014-10-01T10:50:00,0,28120365,206078
OK,83,22,1000,83,2014-10-01T10:55:00,2,28120814,206078
OK,83,22,1000,83,2014-10-01T11:00:00,2,28121197,206078
OK,83,22,1000,83,2014-10-01T11:05:00,0,28121646,206078
OK,83,22,1000,83,2014-10-01T11:10:00,0,28122084,206078
OK,83,22,1000,83,2014-10-01T11:15:00,0,28122533,206078
OK,83,22,1000,83,2014-10-01T11:20:00,0,28122974,206078
OK,83,22,1000,83,2014-10-01T11:25:00,0,28123423,206078
OK,83,22,1000,83,2014-10-01T11:30:00,0,28123855,206078
OK,83,22,1000,83,2014-10-01T11:35:00,0,28124304,206078
OK,83,22,1000,83,2014-10-01T11:40:00,0,28124706,206078
OK,83,22,1000,83,2014-10-01T11:45:00,0,28125155,206078
OK,83,22,1000,83,2014-10-01T11:50:00,0,28125584,206078
OK,83,22,1000,83,2014-10-01T11:55:00,0,28126033,206078
OK,83,22,1000,83,2014-10-01T12:00:00,0,28126385,206078
OK,83,22,1000,83,2014-10-01T12:10:00,0,28127283,206078
OK,83,22,1000,83,2014-10-01T12:15:00,0,28127732,206078
OK,83,22,1000,83,2014-10-01T12:20:00,0,28128160,206078
OK,83,22,1000,83,2014-10-01T12:25:00,0,28128609,206078
OK,83,22,1000,83,2014-10-01T12:30:00,0,28129044,206078
OK,83,22,1000,83,2014-10-01T12:35:00,0,28129493,206078
OK,83,22,1000,83,2014-10-01T12:40:00,0,28129927,206078
OK,83,22,1000,83,2014-10-01T12:45:00,0,28130376,206078
OK,83,22,1000,83,2014-10-01T12:50:00,0,28130804,206078
OK,83,22,1000,83,2014-10-01T12:55:00,0,28131253,206078
OK,83,22,1000,83,2014-10-01T13:00:00,0,28131690,206078
OK,83,22,1000,83,2014-10-01T13:05:00,0,28132139,206078
OK,83,22,1000,83,2014-10-01T13:10:00,0,28132577,206078
OK,83,22,1000,83,2014-10-01T13:15:00,0,28133024,206078
OK,83,22,1000,83,2014-10-01T13:20:00,0,28133462,206078
OK,83,22,1000,83,2014-10-01T13:25:00,0,28133911,206078
OK,83,22,1000,83,2014-10-01T13:30:00,0,28134350,206078
OK,83,22,1000,83,2014-10-01T13:35:00,0,28134799,206078
OK,83,22,1000,83,2014-10-01T13:40:00,0,28135218,206078
OK,83,22,1000,83,2014-10-01T13:45:00,0,28135667,206078
OK,83,22,1000,83,2014-10-01T13:50:00,0,28136104,206078
OK,83,22,1000,83,2014-10-01T13:55:00,0,28136553,206078
OK,83,22,1000,83,2014-10-01T14:00:00,0,28136993,206078
OK,83,22,1000,83,2014-10-01T14:05:00,0,28137442,206078
OK,83,22,1000,83,2014-10-01T14:10:00,0,28137876,206078
OK,83,22,1000,83,2014-10-01T14:15:00,0,28138325,206078
OK,83,22,1000,83,2014-10-01T14:20:00,0,28138753,206078
OK,83,22,1000,83,2014-10-01T14:25:00,0,28139202,206078
OK,83,22,1000,83,2014-10-01T14:30:00,0,28139613,206078
OK,83,22,1000,83,2014-10-01T14:35:00,0,28140062,206078
OK,83,22,1000,83,2014-10-01T14:40:00,0,28140504,206078
OK,83,22,1000,83,2014-10-01T14:45:00,0,28140953,206078
OK,83,22,1000,83,2014-10-01T14:50:00,0,28141379,206078
OK,83,22,1000,83,2014-10-01T14:55:00,0,28141828,206078
OK,83,22,1000,83,2014-10-01T15:00:00,0,28142256,206078
OK,83,22,1000,83,2014-10-01T15:05:00,0,28142705,206078
OK,83,22,1000,83,2014-10-01T15:10:00,0,28143132,206078
OK,83,22,1000,83,2014-10-01T15:15:00,0,28143581,206078
OK,83,22,1000,83,2014-10-01T15:20:00,0,28144029,206078
OK,83,22,1000,83,2014-10-01T15:25:00,0,28144478,206078
OK,83,22,1000,83,2014-10-01T15:30:00,0,28144899,206078
OK,83,22,1000,83,2014-10-01T15:35:00,0,28145313,206078
OK,83,22,1000,83,2014-10-01T15:40:00,0,28145762,206078
OK,83,22,1000,83,2014-10-01T15:45:00,0,28146211,206078
OK,83,22,1000,83,2014-10-01T15:50:00,0,28146660,206078
OK,148,12,1000,148,2014-10-01T15:55:00,1,28147068,206078
OK,148,12,1000,148,2014-10-01T16:00:00,1,28147512,206078
OK,148,12,1000,148,2014-10-01T16:05:00,0,28147961,206078
OK,148,12,1000,148,2014-10-01T16:10:00,0,28148362,206078
OK,148,12,1000,148,2014-10-01T16:20:00,0,28149250,206078
OK,148,12,1000,148,2014-10-01T16:25:00,0,28149699,206078
OK,148,12,1000,148,2014-10-01T16:30:00,0,28150125,206078
OK,148,12,1000,148,2014-10-01T16:35:00,0,28150574,206078
OK,148,12,1000,148,2014-10-01T16:40:00,0,28150992,206078
OK,148,12,1000,148,2014-10-01T16:45:00,0,28151441,206078
OK,148,12,1000,148,2014-10-01T16:50:00,0,28151890,206078
OK,148,12,1000,148,2014-10-01T17:00:00,0,28152339,206078
OK,148,12,1000,148,2014-10-01T17:05:00,0,28152785,206078
OK,148,12,1000,148,2014-10-01T17:10:00,0,28153232,206078
OK,148,12,1000,148,2014-10-01T17:15:00,0,28153681,206078
OK,148,12,1000,148,2014-10-01T17:20:00,0,28154091,206078
OK,148,12,1000,148,2014-10-01T17:25:00,0,28154540,206078
OK,148,12,1000,148,2014-10-01T17:30:00,0,28154982,206078
OK,148,12,1000,148,2014-10-01T17:35:00,0,28155430,206078
OK,148,12,1000,148,2014-10-01T17:40:00,0,28155848,206078
OK,148,12,1000,148,2014-10-01T17:45:00,0,28156297,206078
OK,148,12,1000,148,2014-10-01T17:50:00,0,28156745,206078
OK,148,12,1000,148,2014-10-01T17:55:00,0,28157184,206078
OK,148,12,1000,148,2014-10-01T18:00:00,0,28157614,206078
OK,148,12,1000,148,2014-10-01T18:05:00,0,28158062,206078
OK,148,12,1000,148,2014-10-01T18:10:00,0,28158506,206078
OK,148,12,1000,148,2014-10-01T18:15:00,0,28158952,206078
OK,148,12,1000,148,2014-10-01T18:20:00,0,28159398,206078
OK,148,12,1000,148,2014-10-01T18:25:00,0,28159733,206078
OK,65,28,1000,65,2014-10-01T18:30:00,1,28160182,206078
OK,65,28,1000,65,2014-10-01T18:35:00,1,28160631,206078
OK,65,28,1000,65,2014-10-01T18:40:00,0,28161069,206078
OK,65,28,1000,65,2014-10-01T18:45:00,0,28161518,206078
OK,65,28,1000,65,2014-10-01T18:50:00,0,28161935,206078
OK,65,28,1000,65,2014-10-01T18:55:00,0,28162384,206078
OK,65,28,1000,65,2014-10-01T19:00:00,0,28162778,206078
OK,65,28,1000,65,2014-10-01T19:05:00,0,28163217,206078
OK,65,28,1000,65,2014-10-01T19:10:00,0,28163665,206078
OK,94,19,1000,94,2014-10-01T19:15:00,1,28164114,206078
OK,94,19,1000,94,2014-10-01T19:20:00,1,28164545,206078
OK,94,19,1000,94,2014-10-01T19:25:00,0,28164994,206078
OK,94,19,1000,94,2014-10-01T19:30:00,0,28165419,206078
OK,94,19,1000,94,2014-10-01T19:35:00,0,28165867,206078
OK,94,19,1000,94,2014-10-01T19:40:00,0,28166308,206078
OK,94,19,1000,94,2014-10-01T19:45:00,0,28166670,206078
OK,94,19,1000,94,2014-10-01T19:50:00,0,28167119,206078
OK,94,19,1000,94,2014-10-01T19:55:00,0,28167548,206078
OK,94,19,1000,94,2014-10-01T20:00:00,0,28167981,206078
OK,94,19,1000,94,2014-10-01T20:05:00,0,28168430,206078
OK,94,19,1000,94,2014-10-01T20:10:00,0,28168875,206078
OK,94,19,1000,94,2014-10-01T20:15:00,0,28169324,206078
OK,94,19,1000,94,2014-10-01T20:20:00,0,28169772,206078
OK,94,19,1000,94,2014-10-01T20:25:00,0,28170198,206078
OK,94,19,1000,94,2014-10-01T20:30:00,0,28170643,206078
OK,94,19,1000,94,2014-10-01T20:35:00,0,28171091,206078
OK,94,19,1000,94,2014-10-01T20:40:00,0,28171528,206078
OK,94,19,1000,94,2014-10-01T20:45:00,0,28171974,206078
OK,94,19,1000,94,2014-10-01T20:50:00,0,28172422,206078
OK,94,19,1000,94,2014-10-01T20:55:00,0,28172868,206078
OK,94,19,1000,94,2014-10-01T21:00:00,0,28173314,206078
OK,94,19,1000,94,2014-10-01T21:05:00,0,28173763,206078
OK,94,19,1000,94,2014-10-01T21:10:00,0,28174204,206078
OK,94,19,1000,94,2014-10-01T21:15:00,0,28174653,206078
OK,94,19,1000,94,2014-10-01T21:20:00,0,28175079,206078
OK,94,19,1000,94,2014-10-01T21:25:00,0,28175475,206078
OK,94,19,1000,94,2014-10-01T21:30:00,0,28175924,206078
OK,94,19,1000,94,2014-10-01T21:35:00,0,28176373,206078
OK,94,19,1000,94,2014-10-01T21:40:00,0,28176822,206078
OK,94,19,1000,94,2014-10-01T21:45:00,0,28177178,206078
OK,94,19,1000,94,2014-10-01T21:50:00,0,28177618,206078
OK,94,19,1000,94,2014-10-01T21:55:00,0,28178064,206078
OK,94,19,1000,94,2014-10-01T22:00:00,0,28178513,206078
OK,94,19,1000,94,2014-10-01T22:05:00,0,28178960,206078
OK,94,19,1000,94,2014-10-01T22:10:00,0,28179394,206078
OK,94,19,1000,94,2014-10-01T22:15:00,0,28179837,206078
OK,94,19,1000,94,2014-10-01T22:20:00,0,28180284,206078
OK,94,19,1000,94,2014-10-01T22:25:00,0,28180682,206078
OK,94,19,1000,94,2014-10-01T22:30:00,0,28181131,206078
OK,94,19,1000,94,2014-10-01T22:35:00,0,28181555,206078
OK,94,19,1000,94,2014-10-01T22:40:00,0,28182003,206078
OK,94,19,1000,94,2014-10-01T22:45:00,0,28182450,206078
OK,94,19,1000,94,2014-10-01T22:50:00,0,28182899,206078
OK,94,19,1000,94,2014-10-01T22:55:00,0,28183316,206078
OK,94,19,1000,94,2014-10-01T23:00:00,0,28183749,206078
OK,94,19,1000,94,2014-10-01T23:05:00,0,28184194,206078
OK,94,19,1000,94,2014-10-01T23:10:00,0,28184643,206078
OK,94,19,1000,94,2014-10-01T23:15:00,0,28185078,206078
OK,94,19,1000,94,2014-10-01T23:20:00,0,28185526,206078
OK,94,19,1000,94,2014-10-01T23:25:00,0,28185957,206078
OK,94,19,1000,94,2014-10-01T23:30:00,0,28186349,206078
OK,94,19,1000,94,2014-10-01T23:40:00,0,28187196,206078
OK,94,19,1000,94,2014-10-01T23:55:00,0,28188528,206078
OK,94,19,1000,94,2014-10-02T00:05:00,0,28189413,206078
OK,94,19,1000,94,2014-10-02T00:10:00,0,28189835,206078
OK,94,19,1000,94,2014-10-02T00:15:00,0,28190284,206078
OK,94,19,1000,94,2014-10-02T00:20:00,0,28190637,206078
OK,94,19,1000,94,2014-10-02T00:30:00,0,28191535,206078
OK,94,19,1000,94,2014-10-02T00:35:00,0,28191841,206078
OK,94,19,1000,94,2014-10-02T00:45:00,0,28192723,206078
OK,94,19,1000,94,2014-10-02T00:50:00,0,28193167,206078
OK,94,19,1000,94,2014-10-02T00:55:00,0,28193534,206078
OK,94,19,1000,94,2014-10-02T01:05:00,0,28194432,206078
OK,94,19,1000,94,2014-10-02T01:10:00,0,28194881,206078
OK,94,19,1000,94,2014-10-02T01:15:00,0,28195117,206078
OK,94,19,1000,94,2014-10-02T01:25:00,0,28196015,206078
OK,94,19,1000,94,2014-10-02T01:30:00,0,28196299,206078
OK,94,19,1000,94,2014-10-02T01:35:00,0,28196748,206078
OK,94,19,1000,94,2014-10-02T01:40:00,0,28197171,206078
OK,94,19,1000,94,2014-10-02T01:45:00,0,28197620,206078
OK,94,19,1000,94,2014-10-02T01:50:00,0,28198068,206078
OK,94,19,1000,94,2014-10-02T01:55:00,0,28198516,206078
OK,94,19,1000,94,2014-10-02T02:00:00,0,28198965,206078
OK,94,19,1000,94,2014-10-02T02:05:00,0,28199337,206078
OK,94,19,1000,94,2014-10-02T02:10:00,0,28199779,206078
OK,94,19,1000,94,2014-10-02T02:15:00,0,28200221,206078
OK,94,19,1000,94,2014-10-02T02:20:00,0,28200664,206078
OK,94,19,1000,94,2014-10-02T02:25:00,0,28201113,206078
OK,94,19,1000,94,2014-10-02T02:30:00,0,28201544,206078
OK,94,19,1000,94,2014-10-02T02:45:00,0,28202442,206078
OK,94,19,1000,94,2014-10-02T02:50:00,0,28202884,206078
OK,94,19,1000,94,2014-10-02T02:55:00,0,28203332,206078
OK,94,19,1000,94,2014-10-02T03:00:00,0,28203767,206078
OK,94,19,1000,94,2014-10-02T03:10:00,0,28204216,206078
OK,94,19,1000,94,2014-10-02T03:25:00,0,28204665,206078
OK,94,19,1000,94,2014-10-02T03:30:00,0,28205114,206078
OK,94,19,1000,94,2014-10-02T03:35:00,0,28205542,206078
OK,94,19,1000,94,2014-10-02T03:40:00,0,28205989,206078
OK,94,19,1000,94,2014-10-02T03:45:00,0,28206372,206078
OK,94,19,1000,94,2014-10-02T03:55:00,0,28207270,206078
OK,94,19,1000,94,2014-10-02T04:00:00,0,28207689,206078
OK,94,19,1000,94,2014-10-02T04:05:00,0,28208138,206078
OK,94,19,1000,94,2014-10-02T04:10:00,0,28208565,206078
OK,94,19,1000,94,2014-10-02T04:15:00,0,28209014,206078
OK,94,19,1000,94,2014-10-02T04:20:00,0,28209452,206078
OK,94,19,1000,94,2014-10-02T04:25:00,0,28209901,206078
OK,94,19,1000,94,2014-10-02T04:30:00,0,28210324,206078
OK,94,19,1000,94,2014-10-02T04:35:00,0,28210773,206078
OK,94,19,1000,94,2014-10-02T04:40:00,0,28211198,206078
OK,94,19,1000,94,2014-10-02T04:45:00,0,28211642,206078
OK,94,19,1000,94,2014-10-02T04:50:00,0,28212020,206078
OK,94,19,1000,94,2014-10-02T05:00:00,0,28212898,206078
OK,94,19,1000,94,2014-10-02T05:05:00,0,28213347,206078
OK,94,19,1000,94,2014-10-02T05:10:00,0,28213785,206078
OK,94,19,1000,94,2014-10-02T05:15:00,0,28214234,206078
OK,94,19,1000,94,2014-10-02T05:20:00,0,28214647,206078
OK,94,19,1000,94,2014-10-02T05:25:00,0,28215096,206078
OK,94,19,1000,94,2014-10-02T05:30:00,0,28215512,206078
OK,94,19,1000,94,2014-10-02T05:35:00,0,28215961,206078
OK,94,19,1000,94,2014-10-02T05:40:00,0,28216300,206078
OK,94,19,1000,94,2014-10-02T05:45:00,0,28216740,206078
OK,94,19,1000,94,2014-10-02T05:50:00,0,28217187,206078
OK,94,19,1000,94,2014-10-02T05:55:00,0,28217636,206078
OK,94,19,1000,94,2014-10-02T06:00:00,0,28218075,206078
OK,94,19,1000,94,2014-10-02T06:05:00,0,28218524,206078
OK,94,19,1000,94,2014-10-02T06:10:00,0,28218944,206078
OK,94,19,1000,94,2014-10-02T06:15:00,0,28219393,206078
OK,94,19,1000,94,2014-10-02T06:20:00,0,28219766,206078
OK,94,19,1000,94,2014-10-02T06:30:00,0,28220649,206078
OK,94,19,1000,94,2014-10-02T06:35:00,0,28221098,206078
OK,94,19,1000,94,2014-10-02T06:40:00,0,28221479,206078
OK,94,19,1000,94,2014-10-02T06:45:00,0,28221765,206078
OK,94,19,1000,94,2014-10-02T07:00:00,0,28222359,206078
OK,94,19,1000,94,2014-10-02T07:05:00,0,28222808,206078
OK,94,19,1000,94,2014-10-02T07:10:00,0,28223239,206078
OK,94,19,1000,94,2014-10-02T07:15:00,0,28223674,206078
OK,94,19,1000,94,2014-10-02T07:20:00,0,28224122,206078
OK,94,19,1000,94,2014-10-02T07:25:00,0,28224477,206078
OK,94,19,1000,94,2014-10-02T07:30:00,0,28224926,206078
OK,94,19,1000,94,2014-10-02T07:35:00,0,28225375,206078
OK,94,19,1000,94,2014-10-02T07:40:00,0,28225697,206078
OK,94,19,1000,94,2014-10-02T07:50:00,0,28226587,206078
OK,94,19,1000,94,2014-10-02T07:55:00,0,28227036,206078
OK,94,19,1000,94,2014-10-02T08:00:00,0,28227451,206078
OK,94,19,1000,94,2014-10-02T08:05:00,0,28227900,206078
OK,94,19,1000,94,2014-10-02T08:10:00,0,28228259,206078
OK,94,19,1000,94,2014-10-02T08:20:00,0,28229118,206078
OK,94,19,1000,94,2014-10-02T08:25:00,0,28229567,206078
OK,94,19,1000,94,2014-10-02T08:30:00,0,28229917,206078
OK,370,5,1000,370,2014-10-02T08:35:00,0,28230366,206078
OK,370,5,1000,370,2014-10-02T08:40:00,0,28230732,206078
OK,370,5,1000,370,2014-10-02T08:45:00,0,28231180,206078
OK,125,15,1000,125,2014-10-02T08:50:00,1,28231604,206078
OK,125,15,1000,125,2014-10-02T08:55:00,1,28232053,206078
OK,125,15,1000,125,2014-10-02T09:00:00,0,28232395,206078
OK,125,15,1000,125,2014-10-02T09:10:00,0,28232844,206078
OK,125,15,1000,125,2014-10-02T09:15:00,0,28233293,206078
OK,125,15,1000,125,2014-10-02T09:20:00,0,28233717,206078
OK,125,15,1000,125,2014-10-02T09:25:00,0,28234166,206078
OK,125,15,1000,125,2014-10-02T09:30:00,0,28234499,206078
OK,1550,1,1000,1550,2014-10-02T09:40:00,0,28235375,206078
OK,1550,1,1000,1550,2014-10-02T09:45:00,0,28235824,206078
OK,1550,1,1000,1550,2014-10-02T09:50:00,0,28236267,206078
OK,1550,1,1000,1550,2014-10-02T09:55:00,0,28236714,206078
OK,1550,1,1000,1550,2014-10-02T10:00:00,0,28237117,206078
OK,1550,1,1000,1550,2014-10-02T10:05:00,0,28237565,206078
OK,79,23,1000,79,2014-10-02T10:10:00,1,28238013,206078
OK,79,23,1000,79,2014-10-02T10:15:00,0,28238460,206078
OK,106,17,1000,106,2014-10-02T10:20:00,1,28238901,206078
OK,106,17,1000,106,2014-10-02T10:25:00,1,28239350,206078
OK,106,17,1000,106,2014-10-02T10:30:00,0,28239780,206078
OK,106,17,1000,106,2014-10-02T10:35:00,0,28240229,206078
OK,342,5,1000,342,2014-10-02T10:40:00,1,28240673,206078
OK,342,5,1000,342,2014-10-02T10:45:00,0,28241122,206078
OK,342,5,1000,342,2014-10-02T10:50:00,0,28241554,206078
OK,342,5,1000,342,2014-10-02T10:55:00,0,28242002,206078
OK,342,5,1000,342,2014-10-02T11:00:00,0,28242398,206078
OK,342,5,1000,342,2014-10-02T11:05:00,0,28242847,206078
OK,342,5,1000,342,2014-10-02T11:10:00,0,28243296,206078
OK,342,5,1000,342,2014-10-02T11:15:00,0,28243621,206078
OK,123,15,1000,123,2014-10-02T11:20:00,1,28244059,206078
OK,123,15,1000,123,2014-10-02T11:25:00,1,28244488,206078
OK,123,15,1000,123,2014-10-02T11:30:00,0,28244937,206078
OK,69,27,1000,69,2014-10-02T11:35:00,0,28245386,206078
OK,69,27,1000,69,2014-10-02T11:40:00,0,28245792,206078
OK,69,27,1000,69,2014-10-02T11:45:00,0,28246241,206078
OK,69,27,1000,69,2014-10-02T11:50:00,0,28246678,206078
OK,69,27,1000,69,2014-10-02T11:55:00,0,28247127,206078
OK,69,27,1000,69,2014-10-02T12:00:00,0,28247573,206078
OK,69,27,1000,69,2014-10-02T12:05:00,0,28248003,206078
OK,69,27,1000,69,2014-10-02T12:10:00,0,28248452,206078
OK,99,18,1000,99,2014-10-02T12:15:00,1,28248899,206078
OK,99,18,1000,99,2014-10-02T12:20:00,1,28249327,206078
OK,74,25,1000,74,2014-10-02T12:25:00,1,28249771,206078
OK,74,25,1000,74,2014-10-02T12:30:00,0,28250190,206078
OK,96,19,1000,96,2014-10-02T12:35:00,1,28250588,206078
OK,96,19,1000,96,2014-10-02T13:20:00,0,28251913,206078
OK,96,19,1000,96,2014-10-02T13:30:00,0,28252497,206078
OK,96,19,1000,96,2014-10-02T13:35:00,0,28252939,206078
OK,96,19,1000,96,2014-10-02T13:40:00,0,28253356,206078
OK,96,19,1000,96,2014-10-02T13:50:00,0,28254210,206078
OK,96,19,1000,96,2014-10-02T13:55:00,0,28254531,206078
OK,90,20,1000,90,2014-10-02T14:10:00,1,28255108,206078
OK,90,20,1000,90,2014-10-02T14:15:00,1,28255557,206078
OK,90,20,1000,90,2014-10-02T14:20:00,0,28255985,206078
OK,90,20,1000,90,2014-10-02T14:25:00,0,28256434,206078
OK,90,20,1000,90,2014-10-02T14:30:00,0,28256862,206078
OK,90,20,1000,90,2014-10-02T14:35:00,0,28257311,206078
OK,90,20,1000,90,2014-10-02T14:40:00,0,28257752,206078
OK,90,20,1000,90,2014-10-02T14:45:00,0,28258200,206078
OK,90,20,1000,90,2014-10-02T14:50:00,0,28258633,206078
OK,90,20,1000,90,2014-10-02T14:55:00,0,28259079,206078
OK,90,20,1000,90,2014-10-02T15:00:00,0,28259528,206078
OK,90,20,1000,90,2014-10-02T15:05:00,0,28259975,206078
OK,90,20,1000,90,2014-10-02T15:10:00,0,28260408,206078
OK,90,20,1000,90,2014-10-02T15:15:00,0,28260857,206078
OK,90,20,1000,90,2014-10-02T15:20:00,0,28261297,206078
OK,224,8,1000,224,2014-10-02T15:25:00,1,28261679,206078
OK,224,8,1000,224,2014-10-02T15:30:00,0,28262109,206078
OK,224,8,1000,224,2014-10-02T15:40:00,0,28263002,206078
OK,224,8,1000,224,2014-10-02T15:45:00,0,28263440,206078
OK,224,8,1000,224,2014-10-02T15:50:00,0,28263881,206078
OK,224,8,1000,224,2014-10-02T15:55:00,0,28264283,206078
OK,224,8,1000,224,2014-10-02T16:00:00,0,28264732,206078
OK,224,8,1000,224,2014-10-02T16:05:00,0,28265170,206078
OK,224,8,1000,224,2014-10-02T16:10:00,0,28265610,206078
OK,224,8,1000,224,2014-10-02T16:15:00,0,28266006,206078